| time (UTC) | temp F | wind direction | speed MPH | gust MPH | rain 1hr in | rain 24hr in | rain mn in | humidity % | barometer mb |
| 20260510123504 | 70 | 221 | 4.0 | 9.0 | 0.00 | 0.04 | 0.00 | 95 | 1011.4 |
| 20260510123004 | 69 | 216 | 3.0 | 8.0 | 0.00 | 0.04 | 0.00 | 94 | 1011.4 |
| 20260510122504 | 69 | 211 | 2.0 | 4.0 | 0.00 | 0.04 | 0.00 | 94 | 1011.3 |
| 20260510122025 | 68 | 216 | 2.0 | 4.0 | 0.00 | 0.04 | 0.00 | 94 | 1011.3 |
| 20260510121525 | 68 | 216 | 1.0 | 3.0 | 0.00 | 0.05 | 0.00 | 94 | 1011.2 |
| 20260510121004 | 68 | 216 | 1.0 | 3.0 | 0.00 | 0.09 | 0.00 | 94 | 1011.3 |
| 20260510120504 | 68 | 216 | 1.0 | 3.0 | 0.00 | 0.14 | 0.00 | 94 | 1011.2 |
| 20260510120025 | 68 | 216 | 1.0 | 2.0 | 0.00 | 0.14 | 0.00 | 93 | 1011.3 |
| 20260510115504 | 68 | 214 | 1.0 | 3.0 | 0.00 | 0.14 | 0.00 | 93 | 1011.2 |
| 20260510115004 | 68 | 224 | 1.0 | 3.0 | 0.00 | 0.14 | 0.00 | 93 | 1011.1 |
| 20260510114504 | 68 | 254 | 1.0 | 2.0 | 0.00 | 0.14 | 0.00 | 93 | 1011.1 |
| 20260510114025 | 68 | 262 | 1.0 | 2.0 | 0.00 | 0.14 | 0.00 | 93 | 1011.1 |
| 20260510113504 | 68 | 248 | 1.0 | 2.0 | 0.00 | 0.14 | 0.00 | 93 | 1011.1 |
| 20260510113004 | 68 | 229 | 0.0 | 2.0 | 0.00 | 0.14 | 0.00 | 93 | 1011.2 |
| 20260510112504 | 68 | 0 | 0.0 | 0.0 | 0.00 | 0.14 | 0.00 | 92 | 1011.1 |
| 20260510112004 | 68 | 0 | 0.0 | 0.0 | 0.00 | 0.14 | 0.00 | 92 | 1011.0 |
| 20260510111504 | 67 | 0 | 0.0 | 0.0 | 0.00 | 0.14 | 0.00 | 92 | 1011.1 |
| 20260510111004 | 68 | 0 | 0.0 | 0.0 | 0.00 | 0.14 | 0.00 | 92 | 1011.2 |
| 20260510110525 | 68 | 0 | 0.0 | 0.0 | 0.00 | 0.14 | 0.00 | 92 | 1011.2 |
| 20260510110005 | 68 | 0 | 0.0 | 0.0 | 0.00 | 0.14 | 0.00 | 92 | 1011.2 |
| 20260510105504 | 68 | 213 | 0.0 | 1.0 | 0.00 | 0.14 | 0.00 | 92 | 1011.2 |
| 20260510105004 | 68 | 213 | 0.0 | 2.0 | 0.00 | 0.14 | 0.00 | 92 | 1011.2 |
| 20260510104504 | 68 | 213 | 0.0 | 2.0 | 0.00 | 0.14 | 0.00 | 92 | 1011.3 |
| 20260510104004 | 68 | 213 | 0.0 | 2.0 | 0.00 | 0.14 | 0.00 | 91 | 1011.2 |
| 20260510103525 | 68 | 135 | 0.0 | 2.0 | 0.00 | 0.14 | 0.00 | 91 | 1011.3 |
| 20260510103004 | 68 | 117 | 0.0 | 2.0 | 0.00 | 0.14 | 0.00 | 90 | 1011.2 |
| 20260510102504 | 69 | 117 | 0.0 | 2.0 | 0.00 | 0.14 | 0.00 | 91 | 1011.3 |
| 20260510102025 | 69 | 117 | 0.0 | 1.0 | 0.00 | 0.14 | 0.00 | 90 | 1011.3 |
| 20260510101504 | 69 | 117 | 0.0 | 1.0 | 0.00 | 0.14 | 0.00 | 90 | 1011.3 |
| 20260510101004 | 69 | 117 | 0.0 | 1.0 | 0.00 | 0.14 | 0.00 | 90 | 1011.5 |
| 20260510100525 | 69 | 117 | 0.0 | 1.0 | 0.00 | 0.14 | 0.00 | 90 | 1011.5 |
| 20260510100004 | 69 | 117 | 0.0 | 1.0 | 0.00 | 0.14 | 0.00 | 89 | 1011.4 |
| 20260510095504 | 69 | 154 | 0.0 | 2.0 | 0.00 | 0.14 | 0.00 | 89 | 1011.4 |
| 20260510095004 | 69 | 171 | 0.0 | 2.0 | 0.00 | 0.14 | 0.00 | 89 | 1011.4 |
| 20260510094504 | 69 | 243 | 0.0 | 1.0 | 0.00 | 0.14 | 0.00 | 89 | 1011.3 |
| 20260510094004 | 69 | 245 | 0.0 | 2.0 | 0.00 | 0.14 | 0.00 | 89 | 1011.3 |
| 20260510093504 | 69 | 246 | 0.0 | 2.0 | 0.00 | 0.14 | 0.00 | 89 | 1011.2 |
| 20260510093005 | 69 | 0 | 0.0 | 0.0 | 0.00 | 0.14 | 0.00 | 89 | 1011.2 |
| 20260510092504 | 69 | 0 | 0.0 | 0.0 | 0.00 | 0.14 | 0.00 | 88 | 1011.3 |
| 20260510092004 | 70 | 0 | 0.0 | 0.0 | 0.00 | 0.14 | 0.00 | 88 | 1011.1 |
| 20260510091504 | 70 | 0 | 0.0 | 0.0 | 0.00 | 0.14 | 0.00 | 89 | 1011.1 |
| 20260510091025 | 70 | 0 | 0.0 | 0.0 | 0.00 | 0.14 | 0.00 | 89 | 1011.1 |
| 20260510090504 | 70 | 0 | 0.0 | 0.0 | 0.00 | 0.14 | 0.00 | 89 | 1011.1 |
| 20260510090004 | 70 | 0 | 0.0 | 0.0 | 0.00 | 0.14 | 0.00 | 88 | 1011.1 |
| 20260510085504 | 70 | 0 | 0.0 | 0.0 | 0.00 | 0.14 | 0.00 | 88 | 1011.1 |
| 20260510085004 | 70 | 0 | 0.0 | 0.0 | 0.00 | 0.14 | 0.00 | 88 | 1011.2 |
| 20260510084525 | 70 | 0 | 0.0 | 0.0 | 0.00 | 0.14 | 0.00 | 88 | 1011.1 |
| 20260510084004 | 70 | 0 | 0.0 | 0.0 | 0.00 | 0.14 | 0.00 | 87 | 1011.0 |
| 20260510083525 | 70 | 0 | 0.0 | 0.0 | 0.00 | 0.14 | 0.00 | 86 | 1011.0 |
| 20260510083004 | 71 | 0 | 0.0 | 0.0 | 0.00 | 0.14 | 0.00 | 86 | 1011.0 |
| 20260510082525 | 71 | 0 | 0.0 | 0.0 | 0.00 | 0.14 | 0.00 | 86 | 1011.1 |
| 20260510082004 | 71 | 0 | 0.0 | 0.0 | 0.00 | 0.14 | 0.00 | 85 | 1011.1 |
| 20260510081505 | 72 | 0 | 0.0 | 0.0 | 0.00 | 0.14 | 0.00 | 85 | 1011.1 |
| 20260510081025 | 72 | 0 | 0.0 | 0.0 | 0.00 | 0.14 | 0.00 | 85 | 1011.1 |
| 20260510080504 | 72 | 157 | 0.0 | 1.0 | 0.00 | 0.14 | 0.00 | 85 | 1011.0 |
| 20260510080025 | 72 | 157 | 0.0 | 1.0 | 0.00 | 0.14 | 0.00 | 85 | 1011.1 |
| 20260510075525 | 72 | 157 | 0.0 | 1.0 | 0.00 | 0.14 | 0.00 | 85 | 1011.1 |
| 20260510075003 | 72 | 0 | 0.0 | 0.0 | 0.00 | 0.14 | 0.00 | 84 | 1011.0 |
| 20260510074504 | 72 | 0 | 0.0 | 0.0 | 0.00 | 0.14 | 0.00 | 84 | 1011.0 |
| 20260510074004 | 72 | 0 | 0.0 | 0.0 | 0.00 | 0.14 | 0.00 | 84 | 1010.9 |
| 20260510073503 | 72 | 0 | 0.0 | 0.0 | 0.00 | 0.14 | 0.00 | 84 | 1010.8 |
| 20260510073024 | 73 | 0 | 0.0 | 0.0 | 0.00 | 0.14 | 0.00 | 84 | 1010.9 |
| 20260510072503 | 73 | 0 | 0.0 | 0.0 | 0.00 | 0.14 | 0.00 | 84 | 1010.9 |
| 20260510072003 | 73 | 157 | 0.0 | 1.0 | 0.00 | 0.14 | 0.00 | 84 | 1010.8 |
| 20260510071504 | 73 | 157 | 0.0 | 2.0 | 0.00 | 0.14 | 0.00 | 84 | 1010.7 |
| 20260510071004 | 73 | 157 | 0.0 | 2.0 | 0.00 | 0.14 | 0.00 | 84 | 1010.8 |
| 20260510070503 | 73 | 157 | 0.0 | 2.0 | 0.00 | 0.14 | 0.00 | 84 | 1010.8 |
| 20260510070004 | 73 | 157 | 0.0 | 2.0 | 0.00 | 0.14 | 0.00 | 84 | 1010.7 |
| 20260510065503 | 73 | 159 | 1.0 | 3.0 | 0.00 | 0.14 | 0.00 | 84 | 1010.8 |
| 20260510065003 | 74 | 164 | 1.0 | 3.0 | 0.00 | 0.14 | 0.00 | 84 | 1010.8 |
| 20260510064503 | 74 | 164 | 1.0 | 3.0 | 0.00 | 0.14 | 0.00 | 84 | 1010.9 |
| 20260510064004 | 74 | 159 | 1.0 | 4.0 | 0.00 | 0.14 | 0.00 | 84 | 1010.8 |
| 20260510063503 | 74 | 162 | 1.0 | 4.0 | 0.00 | 0.14 | 0.00 | 84 | 1010.9 |
| 20260510063004 | 74 | 172 | 0.0 | 1.0 | 0.00 | 0.14 | 0.00 | 84 | 1010.9 |
| 20260510062504 | 74 | 186 | 0.0 | 1.0 | 0.00 | 0.14 | 0.00 | 84 | 1010.8 |
| 20260510062003 | 74 | 204 | 0.0 | 3.0 | 0.00 | 0.14 | 0.00 | 84 | 1010.8 |
| 20260510061525 | 74 | 201 | 0.0 | 3.0 | 0.00 | 0.14 | 0.00 | 84 | 1010.8 |
| 20260510061004 | 74 | 144 | 0.0 | 1.0 | 0.00 | 0.14 | 0.00 | 83 | 1010.8 |
| 20260510060504 | 74 | 144 | 0.0 | 1.0 | 0.00 | 0.14 | 0.00 | 83 | 1010.9 |
| 20260510060004 | 75 | 144 | 0.0 | 1.0 | 0.00 | 0.14 | 0.00 | 83 | 1010.9 |
| 20260510055504 | 75 | 0 | 0.0 | 0.0 | 0.00 | 0.14 | 0.00 | 83 | 1010.8 |
| 20260510055004 | 75 | 144 | 0.0 | 1.0 | 0.00 | 0.14 | 0.00 | 82 | 1010.8 |
| 20260510054503 | 75 | 144 | 0.0 | 1.0 | 0.00 | 0.14 | 0.00 | 82 | 1010.8 |
| 20260510054025 | 75 | 144 | 0.0 | 1.0 | 0.00 | 0.14 | 0.00 | 82 | 1010.8 |
| 20260510053503 | 75 | 144 | 0.0 | 1.0 | 0.00 | 0.14 | 0.00 | 82 | 1010.7 |
| 20260510053004 | 76 | 156 | 0.0 | 2.0 | 0.00 | 0.14 | 0.00 | 82 | 1010.8 |
| 20260510052503 | 76 | 178 | 0.0 | 3.0 | 0.00 | 0.14 | 0.00 | 81 | 1010.7 |
| 20260510052003 | 76 | 180 | 1.0 | 4.0 | 0.00 | 0.14 | 0.00 | 81 | 1010.7 |
| 20260510051503 | 76 | 178 | 1.0 | 5.0 | 0.00 | 0.14 | 0.00 | 81 | 1010.6 |
| 20260510051004 | 76 | 171 | 2.0 | 5.0 | 0.00 | 0.14 | 0.00 | 81 | 1010.6 |
| 20260510050504 | 76 | 161 | 2.0 | 5.0 | 0.00 | 0.14 | 0.00 | 81 | 1010.6 |
| 20260510050004 | 77 | 163 | 2.0 | 5.0 | 0.00 | 0.14 | 0.00 | 80 | 1010.6 |
| 20260510045504 | 77 | 169 | 3.0 | 6.0 | 0.00 | 0.14 | 0.14 | 80 | 1010.5 |
| 20260510045003 | 77 | 172 | 3.0 | 8.0 | 0.00 | 0.14 | 0.14 | 80 | 1010.4 |
| 20260510044505 | 77 | 169 | 3.0 | 8.0 | 0.00 | 0.14 | 0.14 | 79 | 1010.3 |
| 20260510044004 | 77 | 173 | 3.0 | 7.0 | 0.00 | 0.14 | 0.14 | 79 | 1010.4 |
| 20260510043503 | 77 | 183 | 4.0 | 8.0 | 0.00 | 0.14 | 0.14 | 79 | 1010.3 |
| 20260510043004 | 77 | 186 | 3.0 | 8.0 | 0.00 | 0.14 | 0.14 | 79 | 1010.3 |
| 20260510042503 | 77 | 184 | 3.0 | 6.0 | 0.00 | 0.14 | 0.14 | 78 | 1010.2 |
| 20260510042003 | 77 | 177 | 2.0 | 5.0 | 0.00 | 0.14 | 0.14 | 78 | 1010.2 |
| 20260510041503 | 77 | 165 | 2.0 | 5.0 | 0.00 | 0.14 | 0.14 | 77 | 1010.3 |
| 20260510041004 | 78 | 156 | 3.0 | 5.0 | 0.00 | 0.14 | 0.14 | 77 | 1010.3 |
| 20260510040504 | 78 | 153 | 3.0 | 5.0 | 0.00 | 0.14 | 0.14 | 76 | 1010.2 |
| 20260510040025 | 78 | 157 | 3.0 | 6.0 | 0.00 | 0.14 | 0.14 | 76 | 1010.1 |
| 20260510035503 | 78 | 161 | 3.0 | 6.0 | 0.00 | 0.14 | 0.14 | 75 | 1010.1 |
| 20260510035004 | 78 | 157 | 3.0 | 6.0 | 0.00 | 0.14 | 0.14 | 74 | 1010.1 |
| 20260510034503 | 78 | 149 | 3.0 | 5.0 | 0.00 | 0.14 | 0.14 | 74 | 1010.1 |
| 20260510034003 | 78 | 142 | 2.0 | 5.0 | 0.00 | 0.14 | 0.14 | 74 | 1010.1 |
| 20260510033503 | 78 | 115 | 1.0 | 5.0 | 0.00 | 0.14 | 0.14 | 73 | 1010.0 |
| 20260510033004 | 78 | 81 | 1.0 | 2.0 | 0.00 | 0.14 | 0.14 | 72 | 1009.9 |
| 20260510032503 | 78 | 81 | 1.0 | 2.0 | 0.00 | 0.14 | 0.14 | 72 | 1009.8 |
| 20260510032003 | 79 | 81 | 0.0 | 1.0 | 0.00 | 0.14 | 0.14 | 72 | 1009.8 |
| 20260510031504 | 79 | 79 | 1.0 | 3.0 | 0.00 | 0.14 | 0.14 | 72 | 1009.7 |
| 20260510031025 | 79 | 67 | 1.0 | 3.0 | 0.00 | 0.14 | 0.14 | 71 | 1009.5 |
| 20260510030524 | 79 | 54 | 1.0 | 2.0 | 0.00 | 0.14 | 0.14 | 71 | 1009.6 |
| 20260510030004 | 79 | 23 | 1.0 | 4.0 | 0.00 | 0.14 | 0.14 | 71 | 1009.5 |
| 20260510025504 | 79 | 26 | 1.0 | 4.0 | 0.00 | 0.14 | 0.14 | 71 | 1009.4 |
| 20260510025004 | 79 | 32 | 0.0 | 2.0 | 0.00 | 0.14 | 0.14 | 70 | 1009.4 |
| 20260510024503 | 79 | 32 | 0.0 | 1.0 | 0.00 | 0.14 | 0.14 | 70 | 1009.2 |
| 20260510024004 | 79 | 0 | 0.0 | 0.0 | 0.00 | 0.14 | 0.14 | 69 | 1009.1 |
| 20260510023524 | 80 | 32 | 0.0 | 1.0 | 0.00 | 0.14 | 0.14 | 69 | 1009.2 |
| 20260510023003 | 80 | 32 | 0.0 | 1.0 | 0.00 | 0.14 | 0.14 | 69 | 1009.1 |
| 20260510022504 | 80 | 32 | 0.0 | 1.0 | 0.00 | 0.14 | 0.14 | 69 | 1009.0 |
| 20260510022003 | 80 | 32 | 0.0 | 1.0 | 0.00 | 0.14 | 0.14 | 69 | 1009.0 |
| 20260510021503 | 80 | 0 | 0.0 | 0.0 | 0.00 | 0.14 | 0.14 | 69 | 1008.9 |
| 20260510021003 | 80 | 0 | 0.0 | 0.0 | 0.00 | 0.14 | 0.14 | 68 | 1009.0 |
| 20260510020503 | 80 | 32 | 0.0 | 1.0 | 0.00 | 0.14 | 0.14 | 67 | 1009.0 |
| 20260510020004 | 80 | 32 | 0.0 | 1.0 | 0.00 | 0.14 | 0.14 | 67 | 1009.0 |
| 20260510015504 | 80 | 32 | 0.0 | 1.0 | 0.00 | 0.14 | 0.14 | 67 | 1009.0 |
| 20260510015004 | 81 | 0 | 0.0 | 0.0 | 0.00 | 0.14 | 0.14 | 67 | 1008.9 |
| 20260510014503 | 81 | 32 | 0.0 | 1.0 | 0.00 | 0.14 | 0.14 | 67 | 1008.8 |
| 20260510014024 | 81 | 36 | 1.0 | 3.0 | 0.00 | 0.14 | 0.14 | 67 | 1008.8 |
| 20260510013503 | 81 | 43 | 1.0 | 3.0 | 0.00 | 0.14 | 0.14 | 66 | 1008.7 |
| 20260510013004 | 81 | 66 | 1.0 | 2.0 | 0.00 | 0.14 | 0.14 | 66 | 1008.7 |
| 20260510012504 | 82 | 99 | 1.0 | 2.0 | 0.00 | 0.14 | 0.14 | 66 | 1008.6 |
| 20260510012004 | 82 | 123 | 1.0 | 2.0 | 0.00 | 0.14 | 0.14 | 64 | 1008.5 |
| 20260510011503 | 82 | 139 | 0.0 | 1.0 | 0.00 | 0.14 | 0.14 | 64 | 1008.5 |
| 20260510011025 | 82 | 139 | 0.0 | 1.0 | 0.00 | 0.14 | 0.14 | 64 | 1008.5 |
| 20260510010503 | 83 | 136 | 0.0 | 1.0 | 0.00 | 0.14 | 0.14 | 63 | 1008.5 |
| 20260510010005 | 83 | 136 | 0.0 | 1.0 | 0.00 | 0.14 | 0.14 | 63 | 1008.4 |
| 20260510005526 | 84 | 136 | 0.0 | 2.0 | 0.00 | 0.14 | 0.14 | 62 | 1008.4 |
| 20260510005005 | 84 | 136 | 1.0 | 3.0 | 0.00 | 0.14 | 0.14 | 62 | 1008.3 |
| 20260510004526 | 84 | 142 | 1.0 | 3.0 | 0.00 | 0.14 | 0.14 | 61 | 1008.3 |
| 20260510004004 | 85 | 144 | 2.0 | 4.0 | 0.00 | 0.14 | 0.14 | 60 | 1008.2 |
| 20260510003504 | 86 | 141 | 2.0 | 4.0 | 0.00 | 0.14 | 0.14 | 59 | 1008.0 |
| 20260510003005 | 86 | 143 | 3.0 | 6.0 | 0.00 | 0.14 | 0.14 | 58 | 1008.0 |
| 20260510002504 | 86 | 147 | 3.0 | 7.0 | 0.00 | 0.14 | 0.14 | 57 | 1008.0 |
| 20260510002005 | 86 | 149 | 3.0 | 7.0 | 0.00 | 0.14 | 0.14 | 58 | 1007.9 |
| 20260510001505 | 87 | 142 | 3.0 | 6.0 | 0.00 | 0.14 | 0.14 | 58 | 1007.9 |
| 20260510001005 | 87 | 138 | 3.0 | 5.0 | 0.00 | 0.14 | 0.14 | 58 | 1007.9 |
| 20260510000504 | 87 | 138 | 3.0 | 5.0 | 0.00 | 0.14 | 0.14 | 58 | 1007.9 |
| 20260510000025 | 87 | 108 | 2.0 | 5.0 | 0.00 | 0.14 | 0.14 | 57 | 1007.8 |
| 20260509235504 | 87 | 77 | 2.0 | 5.0 | 0.00 | 0.14 | 0.14 | 60 | 1007.6 |
| 20260509235025 | 87 | 41 | 3.0 | 5.0 | 0.00 | 0.14 | 0.14 | 61 | 1007.6 |
| 20260509234504 | 87 | 29 | 3.0 | 5.0 | 0.00 | 0.14 | 0.14 | 59 | 1007.5 |
| 20260509234004 | 88 | 52 | 2.0 | 5.0 | 0.00 | 0.14 | 0.14 | 58 | 1007.7 |
| 20260509233505 | 88 | 141 | 1.0 | 3.0 | 0.00 | 0.14 | 0.14 | 56 | 1007.7 |
| 20260509233005 | 88 | 180 | 1.0 | 2.0 | 0.00 | 0.14 | 0.14 | 55 | 1007.7 |
| 20260509232525 | 88 | 191 | 1.0 | 4.0 | 0.00 | 0.14 | 0.14 | 53 | 1007.6 |
| 20260509232004 | 88 | 200 | 2.0 | 4.0 | 0.00 | 0.14 | 0.14 | 54 | 1007.7 |
| 20260509231504 | 88 | 202 | 3.0 | 5.0 | 0.00 | 0.14 | 0.14 | 53 | 1007.6 |
| 20260509231004 | 88 | 211 | 3.0 | 6.0 | 0.00 | 0.14 | 0.14 | 53 | 1007.6 |
| 20260509230526 | 88 | 208 | 3.0 | 7.0 | 0.00 | 0.14 | 0.14 | 53 | 1007.6 |
| 20260509230006 | 88 | 200 | 4.0 | 7.0 | 0.00 | 0.14 | 0.14 | 52 | 1007.5 |
| 20260509225504 | 89 | 195 | 4.0 | 10.0 | 0.00 | 0.14 | 0.14 | 52 | 1007.4 |
| 20260509225005 | 90 | 201 | 4.0 | 10.0 | 0.00 | 0.14 | 0.14 | 51 | 1007.5 |
| 20260509224505 | 90 | 214 | 5.0 | 8.0 | 0.00 | 0.14 | 0.14 | 51 | 1007.6 |
| 20260509224005 | 90 | 218 | 5.0 | 8.0 | 0.00 | 0.14 | 0.14 | 52 | 1007.4 |
| 20260509223504 | 90 | 208 | 5.0 | 8.0 | 0.00 | 0.14 | 0.14 | 52 | 1007.2 |
| 20260509223004 | 90 | 202 | 5.0 | 8.0 | 0.00 | 0.14 | 0.14 | 54 | 1007.3 |
| 20260509222504 | 90 | 210 | 4.0 | 8.0 | 0.00 | 0.14 | 0.14 | 55 | 1007.3 |
| 20260509222004 | 90 | 209 | 4.0 | 8.0 | 0.00 | 0.14 | 0.14 | 53 | 1007.3 |
| 20260509221504 | 90 | 211 | 3.0 | 8.0 | 0.00 | 0.14 | 0.14 | 56 | 1007.5 |
| 20260509221004 | 90 | 194 | 3.0 | 8.0 | 0.00 | 0.14 | 0.14 | 53 | 1007.5 |
| 20260509220504 | 89 | 174 | 4.0 | 8.0 | 0.00 | 0.14 | 0.14 | 54 | 1007.5 |
| 20260509220005 | 89 | 182 | 4.0 | 10.0 | 0.00 | 0.14 | 0.14 | 55 | 1007.7 |
| 20260509215525 | 89 | 182 | 4.0 | 10.0 | 0.00 | 0.14 | 0.14 | 54 | 1007.7 |
| 20260509215004 | 89 | 183 | 4.0 | 9.0 | 0.00 | 0.14 | 0.14 | 57 | 1007.7 |
| 20260509214504 | 90 | 189 | 4.0 | 9.0 | 0.00 | 0.14 | 0.14 | 55 | 1007.8 |
| 20260509214004 | 90 | 167 | 3.0 | 7.0 | 0.00 | 0.14 | 0.14 | 56 | 1007.8 |
| 20260509213505 | 89 | 151 | 3.0 | 7.0 | 0.00 | 0.14 | 0.14 | 57 | 1007.9 |
| 20260509213005 | 90 | 184 | 4.0 | 8.0 | 0.00 | 0.14 | 0.14 | 55 | 1007.9 |
| 20260509212504 | 90 | 210 | 4.0 | 8.0 | 0.00 | 0.14 | 0.14 | 56 | 1008.0 |
| 20260509212004 | 90 | 221 | 4.0 | 8.0 | 0.00 | 0.14 | 0.14 | 56 | 1008.0 |
| 20260509211526 | 90 | 207 | 4.0 | 8.0 | 0.00 | 0.14 | 0.14 | 56 | 1008.0 |
| 20260509211005 | 89 | 194 | 5.0 | 9.0 | 0.00 | 0.14 | 0.14 | 56 | 1008.1 |
| 20260509210525 | 90 | 205 | 4.0 | 9.0 | 0.00 | 0.14 | 0.14 | 55 | 1008.1 |
| 20260509210025 | 90 | 214 | 3.0 | 10.0 | 0.00 | 0.14 | 0.14 | 55 | 1008.2 |
| 20260509205504 | 89 | 229 | 4.0 | 10.0 | 0.00 | 0.14 | 0.14 | 55 | 1008.2 |
| 20260509205005 | 89 | 233 | 5.0 | 11.0 | 0.00 | 0.14 | 0.14 | 56 | 1008.4 |
| 20260509204504 | 89 | 219 | 5.0 | 11.0 | 0.00 | 0.14 | 0.14 | 57 | 1008.5 |
| 20260509204025 | 89 | 210 | 5.0 | 10.0 | 0.00 | 0.14 | 0.14 | 58 | 1008.6 |
| 20260509203504 | 89 | 207 | 5.0 | 10.0 | 0.00 | 0.14 | 0.14 | 56 | 1008.6 |
| 20260509203004 | 89 | 212 | 5.0 | 11.0 | 0.00 | 0.14 | 0.14 | 56 | 1008.5 |
| 20260509202525 | 89 | 211 | 6.0 | 16.0 | 0.00 | 0.14 | 0.14 | 57 | 1008.6 |
| 20260509202025 | 88 | 224 | 5.0 | 16.0 | 0.00 | 0.14 | 0.14 | 56 | 1008.6 |
| 20260509201504 | 88 | 216 | 6.0 | 12.0 | 0.00 | 0.14 | 0.14 | 56 | 1008.7 |
| 20260509201004 | 88 | 201 | 6.0 | 12.0 | 0.00 | 0.14 | 0.14 | 58 | 1008.7 |
| 20260509200504 | 88 | 217 | 5.0 | 13.0 | 0.00 | 0.14 | 0.14 | 57 | 1008.7 |
| 20260509200005 | 89 | 236 | 4.0 | 13.0 | 0.00 | 0.14 | 0.14 | 57 | 1008.9 |
| 20260509195504 | 89 | 233 | 4.0 | 9.0 | 0.00 | 0.14 | 0.14 | 60 | 1008.9 |
| 20260509195004 | 88 | 216 | 5.0 | 10.0 | 0.00 | 0.14 | 0.14 | 60 | 1009.1 |
| 20260509194504 | 88 | 198 | 5.0 | 10.0 | 0.00 | 0.14 | 0.14 | 62 | 1009.2 |
| 20260509194005 | 87 | 193 | 4.0 | 9.0 | 0.00 | 0.14 | 0.14 | 60 | 1009.3 |
| 20260509193525 | 88 | 207 | 2.0 | 9.0 | 0.00 | 0.14 | 0.14 | 62 | 1009.4 |
| 20260509193004 | 87 | 210 | 2.0 | 5.0 | 0.00 | 0.14 | 0.14 | 63 | 1009.6 |
| 20260509192504 | 88 | 258 | 2.0 | 6.0 | 0.00 | 0.14 | 0.14 | 60 | 1009.6 |
| 20260509192004 | 87 | 244 | 3.0 | 6.0 | 0.00 | 0.14 | 0.14 | 64 | 1009.7 |
| 20260509191525 | 87 | 206 | 3.0 | 6.0 | 0.00 | 0.14 | 0.14 | 65 | 1009.8 |
| 20260509191004 | 86 | 206 | 3.0 | 9.0 | 0.00 | 0.14 | 0.14 | 64 | 1009.9 |
| 20260509190504 | 86 | 210 | 3.0 | 9.0 | 0.00 | 0.14 | 0.14 | 66 | 1009.9 |
| 20260509190006 | 86 | 196 | 2.0 | 5.0 | 0.00 | 0.14 | 0.14 | 66 | 1009.9 |
| 20260509185505 | 85 | 169 | 2.0 | 5.0 | 0.00 | 0.14 | 0.14 | 69 | 1009.8 |
| 20260509185005 | 85 | 183 | 2.0 | 5.0 | 0.00 | 0.14 | 0.14 | 68 | 1009.9 |
| 20260509184504 | 85 | 227 | 3.0 | 5.0 | 0.00 | 0.14 | 0.14 | 67 | 1009.9 |
| 20260509184004 | 86 | 260 | 2.0 | 5.0 | 0.00 | 0.14 | 0.14 | 67 | 1010.0 |
| 20260509183525 | 86 | 314 | 2.0 | 5.0 | 0.00 | 0.14 | 0.14 | 69 | 1010.1 |
| 20260509183004 | 86 | 352 | 2.0 | 5.0 | 0.00 | 0.14 | 0.14 | 67 | 1010.0 |
| 20260509182505 | 86 | 291 | 1.0 | 4.0 | 0.00 | 0.14 | 0.14 | 69 | 1010.1 |
| 20260509182026 | 86 | 247 | 1.0 | 4.0 | 0.00 | 0.14 | 0.14 | 67 | 1010.2 |
| 20260509181504 | 85 | 274 | 2.0 | 9.0 | 0.00 | 0.14 | 0.14 | 72 | 1010.3 |
| 20260509181005 | 84 | 266 | 2.0 | 9.0 | 0.00 | 0.14 | 0.14 | 69 | 1010.4 |
| 20260509180504 | 84 | 187 | 2.0 | 7.0 | 0.00 | 0.14 | 0.14 | 70 | 1010.4 |
| 20260509180026 | 84 | 218 | 3.0 | 8.0 | 0.00 | 0.14 | 0.14 | 69 | 1010.4 |
| 20260509175525 | 84 | 233 | 3.0 | 8.0 | 0.00 | 0.14 | 0.14 | 71 | 1010.5 |
| 20260509175004 | 84 | 212 | 3.0 | 8.0 | 0.00 | 0.14 | 0.14 | 72 | 1010.5 |
| 20260509174504 | 83 | 223 | 3.0 | 8.0 | 0.00 | 0.14 | 0.14 | 69 | 1010.6 |
| 20260509174004 | 83 | 247 | 3.0 | 12.0 | 0.00 | 0.14 | 0.14 | 69 | 1010.7 |
| 20260509173505 | 83 | 229 | 5.0 | 12.0 | 0.00 | 0.14 | 0.14 | 71 | 1010.8 |
| 20260509173004 | 83 | 213 | 5.0 | 11.0 | 0.00 | 0.14 | 0.14 | 73 | 1010.7 |
| 20260509172525 | 82 | 212 | 4.0 | 9.0 | 0.00 | 0.14 | 0.14 | 72 | 1010.7 |
| 20260509172004 | 82 | 241 | 3.0 | 9.0 | 0.00 | 0.14 | 0.14 | 73 | 1010.8 |
| 20260509171504 | 82 | 231 | 4.0 | 9.0 | 0.00 | 0.14 | 0.14 | 73 | 1010.9 |
| 20260509171004 | 82 | 219 | 5.0 | 10.0 | 0.00 | 0.14 | 0.14 | 75 | 1010.9 |
| 20260509170526 | 82 | 211 | 5.0 | 10.0 | 0.00 | 0.14 | 0.14 | 74 | 1011.1 |
| 20260509170004 | 81 | 205 | 5.0 | 11.0 | 0.00 | 0.14 | 0.14 | 75 | 1011.0 |
| 20260509165526 | 82 | 219 | 5.0 | 12.0 | 0.00 | 0.14 | 0.14 | 75 | 1011.0 |
| 20260509165004 | 82 | 238 | 4.0 | 12.0 | 0.00 | 0.14 | 0.14 | 74 | 1011.0 |
| 20260509164505 | 81 | 250 | 3.0 | 9.0 | 0.00 | 0.14 | 0.14 | 74 | 1011.1 |
| 20260509164004 | 81 | 258 | 3.0 | 9.0 | 0.00 | 0.14 | 0.14 | 76 | 1011.1 |
| 20260509163504 | 81 | 251 | 4.0 | 9.0 | 0.00 | 0.14 | 0.14 | 75 | 1011.0 |
| 20260509163004 | 80 | 260 | 4.0 | 8.0 | 0.00 | 0.14 | 0.14 | 77 | 1011.1 |
| 20260509162504 | 80 | 261 | 3.0 | 7.0 | 0.00 | 0.14 | 0.14 | 78 | 1011.0 |
| 20260509162025 | 80 | 233 | 3.0 | 10.0 | 0.00 | 0.14 | 0.14 | 79 | 1011.0 |
| 20260509161504 | 79 | 235 | 4.0 | 10.0 | 0.00 | 0.14 | 0.14 | 82 | 1010.9 |
| 20260509161004 | 79 | 250 | 4.0 | 8.0 | 0.00 | 0.14 | 0.14 | 82 | 1010.9 |
| 20260509160504 | 78 | 246 | 4.0 | 10.0 | 0.00 | 0.14 | 0.14 | 85 | 1010.9 |
| 20260509160005 | 78 | 258 | 4.0 | 10.0 | 0.00 | 0.14 | 0.14 | 89 | 1010.7 |
| 20260509155505 | 77 | 269 | 5.0 | 13.0 | 0.00 | 0.14 | 0.14 | 91 | 1010.7 |
| 20260509155004 | 76 | 267 | 6.0 | 13.0 | 0.01 | 0.14 | 0.14 | 93 | 1010.7 |
| 20260509154504 | 75 | 266 | 5.0 | 11.0 | 0.01 | 0.14 | 0.14 | 94 | 1010.7 |
| 20260509154025 | 75 | 264 | 4.0 | 8.0 | 0.01 | 0.14 | 0.14 | 96 | 1010.9 |
| 20260509153504 | 75 | 265 | 3.0 | 7.0 | 0.01 | 0.14 | 0.14 | 96 | 1010.9 |
| 20260509153004 | 74 | 267 | 2.0 | 6.0 | 0.02 | 0.14 | 0.14 | 96 | 1011.0 |
| 20260509152504 | 74 | 279 | 2.0 | 7.0 | 0.02 | 0.14 | 0.14 | 96 | 1011.2 |
| 20260509152004 | 74 | 306 | 1.0 | 7.0 | 0.02 | 0.14 | 0.14 | 97 | 1011.2 |
| 20260509151504 | 74 | 357 | 1.0 | 4.0 | 0.03 | 0.14 | 0.14 | 96 | 1011.2 |
| 20260509151005 | 74 | 5 | 1.0 | 4.0 | 0.03 | 0.14 | 0.14 | 96 | 1011.4 |
| 20260509150504 | 74 | 308 | 1.0 | 3.0 | 0.03 | 0.14 | 0.14 | 97 | 1011.3 |
| 20260509150004 | 74 | 334 | 1.0 | 3.0 | 0.03 | 0.14 | 0.14 | 97 | 1011.1 |
| 20260509145504 | 74 | 320 | 1.0 | 3.0 | 0.03 | 0.14 | 0.14 | 97 | 1011.0 |
| 20260509145025 | 73 | 283 | 1.0 | 3.0 | 0.02 | 0.13 | 0.13 | 96 | 1011.2 |
| 20260509144504 | 73 | 255 | 2.0 | 4.0 | 0.02 | 0.13 | 0.13 | 96 | 1011.4 |
| 20260509144004 | 73 | 235 | 2.0 | 5.0 | 0.02 | 0.13 | 0.13 | 96 | 1011.3 |
| 20260509143525 | 73 | 208 | 3.0 | 6.0 | 0.02 | 0.13 | 0.13 | 96 | 1011.3 |
| 20260509143004 | 73 | 189 | 3.0 | 6.0 | 0.01 | 0.12 | 0.12 | 96 | 1011.5 |
| 20260509142504 | 73 | 172 | 2.0 | 5.0 | 0.01 | 0.12 | 0.12 | 96 | 1011.6 |
| 20260509142004 | 73 | 159 | 2.0 | 5.0 | 0.01 | 0.12 | 0.12 | 96 | 1011.6 |
| 20260509141504 | 73 | 156 | 3.0 | 5.0 | 0.00 | 0.11 | 0.11 | 96 | 1011.6 |
| 20260509141005 | 73 | 143 | 2.0 | 5.0 | 0.00 | 0.11 | 0.11 | 96 | 1011.4 |
| 20260509140504 | 73 | 130 | 2.0 | 4.0 | 0.00 | 0.11 | 0.11 | 96 | 1011.5 |
| 20260509140006 | 73 | 98 | 2.0 | 7.0 | 0.00 | 0.11 | 0.11 | 96 | 1011.3 |
| 20260509135504 | 74 | 83 | 2.0 | 7.0 | 0.00 | 0.11 | 0.11 | 96 | 1011.3 |
| 20260509135005 | 74 | 84 | 2.0 | 5.0 | 0.00 | 0.11 | 0.11 | 96 | 1011.2 |
| 20260509134504 | 74 | 86 | 2.0 | 4.0 | 0.00 | 0.11 | 0.11 | 96 | 1010.9 |
| 20260509134004 | 73 | 95 | 1.0 | 4.0 | 0.01 | 0.11 | 0.11 | 96 | 1010.5 |
| 20260509133504 | 73 | 146 | 0.0 | 3.0 | 0.01 | 0.11 | 0.11 | 96 | 1010.3 |
| 20260509133004 | 73 | 155 | 1.0 | 4.0 | 0.01 | 0.11 | 0.11 | 96 | 1010.1 |
| 20260509132504 | 73 | 160 | 1.0 | 4.0 | 0.01 | 0.11 | 0.11 | 96 | 1010.0 |
| 20260509132004 | 73 | 171 | 1.0 | 2.0 | 0.01 | 0.11 | 0.11 | 96 | 1010.2 |
| 20260509131504 | 73 | 177 | 1.0 | 3.0 | 0.02 | 0.11 | 0.11 | 96 | 1010.4 |
| 20260509131004 | 73 | 161 | 2.0 | 5.0 | 0.06 | 0.11 | 0.11 | 96 | 1010.4 |
| 20260509130504 | 73 | 141 | 1.0 | 5.0 | 0.11 | 0.11 | 0.11 | 96 | 1010.8 |
| 20260509130004 | 73 | 88 | 0.0 | 1.0 | 0.11 | 0.11 | 0.11 | 96 | 1010.7 |
| 20260509125526 | 73 | 88 | 0.0 | 2.0 | 0.11 | 0.11 | 0.11 | 96 | 1010.9 |
| 20260509125004 | 73 | 88 | 1.0 | 3.0 | 0.11 | 0.11 | 0.11 | 96 | 1011.0 |
| 20260509124505 | 73 | 87 | 2.0 | 6.0 | 0.11 | 0.11 | 0.11 | 96 | 1011.1 |
| 20260509124025 | 73 | 80 | 2.0 | 6.0 | 0.10 | 0.10 | 0.10 | 96 | 1011.2 |